Location: Friaudour
(46.0460°N, 1.2873°E)
Time: 10:04:12
(UTC+00:00)

Cosmos 1908 Rocket - Pass Details

Date: 14 July 2020
Orbit: 605 x 633 km, 82.5° (Epoch: 05 August)

Event Time Altitude Azimuth Distance (km) Brightness Sun altitude
Exits shadow 03:05:55 - 190° (S) 2,064 5.7 -10.4°
Reaches altitude 10° 03:06:03 10° 190° (S) 2,011 5.7 -10.4°
Maximum altitude 03:10:31 83° 278° (W) 644 3.6 -9.9°
Drops below altitude 10° 03:15:01 10° 7° (N) 2,022 7.1 -9.3°
Sets 03:17:16 0° 9° (N) 2,931 8.0 -9.0°
